Home   Weather   Kãnpur   Past weeks

Flag for India Past Weather in Kãnpur, Uttar Pradesh, India — Yesterday and Last 2 Weeks

Now
90 °F

Haze.


Feels Like: 87 °F
Forecast: 78 / 104 °F
Wind: No wind

Location: Lucknow / Amausi

Current Time: Apr 28, 2017 at 9:46:22 pm

Latest Report: Apr 28, 2017 at 9:00 pm


Visibility: 2 mi

Pressure: 29.65 "Hg

Humidity: 29%

Dew Point: 54 °F

Location of KãnpurLocation

Past Weather in Kãnpur — Graph

°F

Kãnpur Temperature Yesterday

Maximum temperature yesterday: 106 °F (at 3:30 pm)
Minimum temperature yesterday: 73 °F (at 11:00 pm)
Average temperature yesterday: 92 °F

High & Low Weather Summary for the Past Weeks

 TemperatureHumidityPressure
High109 °F (Apr 15, 4:00 pm)89% (Apr 20, 5:00 am)29.77 "Hg (Apr 20, 5:00 am)
Low73 °F (Apr 16, 5:30 am)9% (Apr 25, 12:30 pm)29.47 "Hg (Apr 20, 4:00 pm)
Average92 °F43%29.63 "Hg
* Reported Apr 13 8:30 pm — Apr 28 8:30 pm, Kãnpur, Weather by CustomWeather, © 2017

Note: Actual official high and low records may vary slightly from our data, if they occured in-between our weather recording intervals... More about our weather records

Advertising

Kãnpur Weather History for the Previous 24 Hours

Scroll right to see more
 ConditionsComfort  
Time TempWeatherWind HumidityBarometerVisibility
8:30 pm
Fri, Apr 28
91 °FClear.No wind28%29.65 "Hg2 mi
8:00 pm91 °FDuststorm.7 mph28%29.65 "Hg2 mi
7:30 pm93 °FDuststorm.2 mph26%29.65 "Hg2 mi
7:00 pm97 °FDuststorm.2 mph23%29.62 "Hg2 mi
6:30 pm100 °FDuststorm.3 mph21%29.62 "Hg2 mi
6:00 pm102 °FDuststorm.3 mph18%29.62 "Hg2 mi
5:30 pm104 °FDuststorm.7 mph17%29.62 "Hg2 mi
5:00 pm106 °FDuststorm.6 mph17%29.62 "Hg2 mi
4:30 pm104 °FDuststorm.9 mph16%29.62 "Hg2 mi
4:00 pm106 °FDuststorm.9 mph17%29.62 "Hg2 mi
3:30 pm106 °FDuststorm.9 mph17%29.62 "Hg2 mi
3:00 pm106 °FDuststorm.13 mph18%29.65 "Hg2 mi
2:30 pm108 °FDuststorm.9 mph17%29.65 "Hg2 mi
2:00 pm108 °FDuststorm.9 mph18%29.68 "Hg2 mi
1:00 pm106 °FDuststorm.9 mph19%29.71 "Hg2 mi
12:30 pm106 °FDuststorm.9 mph18%29.71 "Hg2 mi
12:00 pm104 °FDuststorm.6 mph19%29.74 "Hg2 mi
11:30 am102 °FDuststorm.5 mph20%29.74 "Hg2 mi
11:00 am102 °FHaze.5 mph21%29.74 "Hg2 mi
10:30 am100 °FHaze.3 mph24%29.74 "Hg2 mi
10:00 am99 °FHaze.3 mph25%29.74 "Hg2 mi
9:30 am95 °FHaze.3 mph28%29.74 "Hg2 mi
9:00 am93 °FHaze.3 mph28%29.74 "Hg2 mi
8:30 am91 °FHaze.2 mph28%29.74 "Hg2 mi
8:00 am88 °FHaze.3 mph33%29.74 "Hg1 mi
7:30 am84 °FHaze.3 mph35%29.74 "Hg1 mi
7:00 am81 °FHaze.No wind42%29.74 "Hg1 mi
6:30 am77 °FHaze.No wind51%29.71 "Hg1 mi
6:00 am75 °FHaze.No wind47%29.71 "Hg1 mi
5:30 am75 °FHaze.No wind50%29.71 "Hg1 mi
5:00 am77 °FHaze.No wind47%29.68 "Hg1 mi
4:00 am75 °FHaze.No wind50%29.68 "Hg1 mi
3:00 am79 °FPassing clouds.No wind45%29.68 "Hg1 mi
2:00 am82 °FPassing clouds.2 mph40%29.68 "Hg1 mi
1:00 am84 °FPassing clouds.2 mph37%29.71 "Hg1 mi
12:00 am86 °FPartly cloudy.2 mph35%29.74 "Hg1 mi
11:00 pm
Thu, Apr 27
73 °FPassing clouds.8 mph53%29.74 "Hg1 mi
10:00 pm84 °FPassing clouds.2 mph37%29.71 "Hg2 mi
9:00 pm90 °FHaze.2 mph29%29.71 "Hg2 mi
Weather by CustomWeather, © 2017

See weather overviewHow to use our weather pages